Change the Weather History Date:

Monday, July 30, 2012

  Actual Average Record
Temperature  
Mean Temperature 75 °F 74 °F  
Max Temperature 90 °F 89 °F 95 °F (2002)
Min Temperature 59 °F 58 °F 55 °F (1998)
Degree Days  
Heating Degree Days 0 0  
Month to date heating degree days 0 0  
Since 1 June heating degree days 6 39  
Since 1 July heating degree days 0 0  
Cooling Degree Days 10 9  
Month to date cooling degree days 299 262  
Year to date cooling degree days 591 414  
Since 1 June cooling degree days 568 397  
Growing Degree Days 24 (Base 50)    
Moisture  
Dew Point 54 °F    
Average Humidity 57    
Maximum Humidity 87    
Minimum Humidity 27    
Precipitation  
Precipitation T in 0.05 in 0.57 in (1999)
Month to date precipitation 1.74 0.95  
Year to date precipitation 3.30 6.02  
Sea Level Pressure  
Sea Level Pressure 30.02 in    
Wind  
Wind Speed 6 mph (SSE)    
Max Wind Speed 13 mph    
Max Gust Speed 17 mph    
Visibility 10 miles    
Events Thunderstorm    
T = Trace of Precipitation, MM = Missing Value Source: NWS Daily Summary

Daily Weather History Graph

Daily Weather History Graph

Search for Another Location

Airport or City:

Trip Planner

Search our weather history database for the weather conditions in past years. The results will help you decide how hot, cold, wet, or windy it might be!

Date:

Astronomy

Jul. 30, 2012 Rise Set
Actual Time 6:12 AM MDT 8:23 PM MDT
Civil Twilight 5:42 AM MDT 8:52 PM MDT
Nautical Twilight 5:06 AM MDT 9:28 PM MDT
Astronomical Twilight 4:26 AM MDT 10:08 PM MDT
Moon 6:26 PM MDT (7/30) 3:31 AM MDT (7/30)
Length of Visible Light 15h 10m
Length of Day
14h 11m
Waxing Gibbous, 93% of the Moon is Illuminated
Jul 30
Waxing Gibbous
Aug 1
Full
Aug 9
Last Quarter
Aug 17
New
Aug 24
First Quarter

Hourly Weather History & Observations

Time (MDT) Temp. Heat Index Dew Point Humidity Pressure Visibility Wind Dir Wind Speed Gust Speed Precip Events Conditions
12:53 AM 63.0 °F - 57.0 °F 81% 30.02 in 10.0 mi SE 8.1 mph - N/A   Clear
1:53 AM 63.0 °F - 55.9 °F 78% 30.03 in 10.0 mi SE 6.9 mph - N/A   Clear
2:53 AM 62.1 °F - 55.9 °F 80% 30.04 in 10.0 mi South 3.5 mph - N/A   Clear
3:53 AM 61.0 °F - 55.9 °F 83% 30.06 in 10.0 mi South 5.8 mph - N/A   Clear
4:53 AM 59.0 °F - 55.0 °F 87% 30.06 in 10.0 mi South 4.6 mph - N/A   Clear
5:53 AM 60.1 °F - 54.0 °F 80% 30.07 in 10.0 mi South 6.9 mph - N/A   Overcast
6:53 AM 61.0 °F - 55.0 °F 81% 30.08 in 10.0 mi Calm Calm - N/A   Mostly Cloudy
7:53 AM 66.0 °F - 55.9 °F 70% 30.09 in 10.0 mi SE 4.6 mph - N/A   Clear
8:53 AM 69.1 °F - 55.9 °F 63% 30.09 in 10.0 mi South 3.5 mph - N/A   Clear
9:53 AM 75.0 °F - 55.0 °F 50% 30.08 in 10.0 mi SE 3.5 mph - N/A   Clear
10:53 AM 79.0 °F - 54.0 °F 42% 30.06 in 10.0 mi ESE 3.5 mph - N/A   Clear
11:53 AM 82.9 °F 82.1 °F 55.9 °F 39% 30.04 in 10.0 mi WNW 8.1 mph - N/A   Clear
12:53 PM 84.9 °F 83.3 °F 54.0 °F 34% 30.01 in 10.0 mi NNW 10.4 mph - N/A   Clear
1:53 PM 87.1 °F - 52.0 °F 30% 29.99 in 10.0 mi NNW 8.1 mph - N/A   Clear
2:53 PM 88.0 °F - 52.0 °F 29% 29.96 in 10.0 mi Variable 5.8 mph - N/A   Clear
3:53 PM 89.1 °F 86.7 °F 53.1 °F 29% 29.94 in 10.0 mi NNW 6.9 mph - N/A   Clear
4:53 PM 89.1 °F - 52.0 °F 28% 29.92 in 10.0 mi Calm Calm - N/A   Clear
5:53 PM 88.0 °F 85.7 °F 53.1 °F 30% 29.91 in 10.0 mi North 9.2 mph - N/A   Clear
6:53 PM 87.1 °F - 51.1 °F 29% 29.91 in 10.0 mi NNW 8.1 mph - N/A   Clear
7:53 PM 82.9 °F 82.1 °F 55.9 °F 39% 29.91 in 10.0 mi WNW 4.6 mph - N/A   Clear
8:53 PM 79.0 °F - 53.1 °F 40% 29.94 in 10.0 mi WNW 8.1 mph - N/A   Clear
9:31 PM 78.8 °F - 51.8 °F 39% 30.21 in 10.0 mi West 6.9 mph - N/A Thunderstorm Clear
9:46 PM 77.0 °F - 51.8 °F 41% 30.23 in 10.0 mi NE 3.5 mph - N/A   Scattered Clouds
9:53 PM 77.0 °F - 52.0 °F 42% 29.97 in 10.0 mi East 3.5 mph - N/A   Mostly Cloudy
10:53 PM 72.0 °F - 57.9 °F 61% 29.99 in 10.0 mi SE 9.2 mph - 0.00 in   Scattered Clouds
11:53 PM 72.0 °F - 54.0 °F 53% 29.97 in 10.0 mi South 9.2 mph - N/A   Clear